STARLINK-5718 (55620 NORAD) Tracking and Keplerian Element Data

This shows tracking and keplerian element data for the satellite.

Feedback or suggestion? Click here.




ElementValue
Catalog55620
NameSTARLINK-5718
Epoch Orbit660
Epoch Day85.25001157
Epoch Year2023
RAAN103.8298
Inclination42.998
Eccentricity0.0001246
Argument of Perigee265.9797
Mean Anonmoly112.5999
Mean Motion15.48929794
Decay Rate-0.00051844
L11 55620U 23020BD 23085.25001157 -.00051844 00000+0 -93704-3 0 9993
L22 55620 42.9980 103.8298 0001246 265.9797 112.5999 15.48929794 6607



Live tracking and technical data element details for STARLINK-5718 (NORAD 55620). STARLINK-5718 can be tracked NOW for your location showing map with azimuth and elevation plus other details from your city location.







IsCatalogInMostPopularTable: catalog: 55620, numindb: 4
Update: records affected: 1



GetName: 55620 STARLINK-5718

Hit Count: updated at: Tue, 28 Mar 2023 01:52:51 GMT